Time,TemperatureF,DewpointF,PressureIn,WindDirection,WindDirectionDegrees,WindSpeedMPH,WindSpeedGustMPH,Humidity,HourlyPrecipIn,Conditions,Clouds,dailyrainin,SoftwareType,DateUTC
2013-09-30 00:01:00,73.8,-32.9,30.00,NE,45,5.8,6.7,1,0.10,RA,,0.00,WeatherDisplay:10.37,2013-09-30 04:01:00,
2013-09-30 00:02:00,73.8,-32.9,30.00,ESE,112,6.9,6.9,1,0.10,RA,,0.00,WeatherDisplay:10.37,2013-09-30 04:02:00,
2013-09-30 00:03:00,73.8,-32.9,30.00,East,90,7.4,7.4,1,0.10,RA,,0.00,WeatherDisplay:10.37,2013-09-30 04:03:00,
2013-09-30 00:05:00,73.6,-33.0,30.00,East,90,6.9,6.9,1,0.10,RA,,0.00,WeatherDisplay:10.37,2013-09-30 04:05:00,
2013-09-30 00:10:00,73.4,-33.2,30.00,ENE,68,8.3,8.3,1,0.10,CLR,,0.00,WeatherDisplay:10.37,2013-09-30 04:10:00,
2013-09-30 00:15:00,73.4,-33.2,30.00,ENE,68,6.7,6.7,1,0.10,CLR,,0.00,WeatherDisplay:10.37,2013-09-30 04:15:00,
2013-09-30 00:20:00,73.6,-33.0,29.99,ENE,68,8.1,8.1,1,0.10,CLR,,0.00,WeatherDisplay:10.37,2013-09-30 04:20:00,
2013-09-30 00:25:00,73.4,-33.2,29.99,NNE,22,9.4,9.4,1,0.10,CLR,,0.00,WeatherDisplay:10.37,2013-09-30 04:25:00,
2013-09-30 00:30:00,73.6,-33.0,29.99,NNE,22,8.3,8.3,1,0.10,CLR,,0.00,WeatherDisplay:10.37,2013-09-30 04:30:00,
2013-09-30 00:35:00,73.6,-33.0,29.99,NE,45,8.1,8.1,1,0.10,CLR,,0.00,WeatherDisplay:10.37,2013-09-30 04:35:00,
2013-09-30 00:40:00,73.6,-33.0,29.99,ENE,68,9.2,9.2,1,0.10,CLR,,0.00,WeatherDisplay:10.37,2013-09-30 04:40:00,
2013-09-30 00:45:00,73.6,-33.0,29.99,NNE,22,9.2,9.2,1,0.10,CLR,,0.00,WeatherDisplay:10.37,2013-09-30 04:45:00,
2013-09-30 00:50:00,73.6,-33.0,29.99,NNE,22,9.2,9.2,1,0.07,CLR,,0.00,WeatherDisplay:10.37,2013-09-30 04:50:00,
2013-09-30 00:55:00,73.6,-33.0,29.99,NE,45,5.9,5.9,1,0.02,CLR,,0.00,WeatherDisplay:10.37,2013-09-30 04:55:00,
2013-09-30 01:00:00,73.6,-33.0,29.99,ENE,68,4.6,4.6,1,0.00,CLR,,0.00,WeatherDisplay:10.37,2013-09-30 05:00:00,
2013-09-30 01:05:00,73.4,-33.2,29.99,NNE,22,4.6,5.6,1,0.00,CLR,,0.00,WeatherDisplay:10.37,2013-09-30 05:05:00,
2013-09-30 01:10:00,73.4,-33.2,29.99,NE,45,5.8,5.8,1,0.00,CLR,,0.00,WeatherDisplay:10.37,2013-09-30 05:10:00,
2013-09-30 01:15:00,73.4,-33.2,29.99,NNE,22,6.9,6.9,1,0.00,CLR,,0.00,WeatherDisplay:10.37,2013-09-30 05:15:00,
2013-09-30 01:20:00,73.4,-33.2,29.98,NNE,22,7.8,7.8,1,0.00,CLR,,0.00,WeatherDisplay:10.37,2013-09-30 05:20:00,
2013-09-30 01:25:00,73.4,-33.2,29.98,ENE,68,6.9,6.9,1,0.00,CLR,,0.00,WeatherDisplay:10.37,2013-09-30 05:25:00,
2013-09-30 01:30:00,73.4,-33.2,29.98,NNE,22,6.9,6.9,1,0.00,CLR,,0.00,WeatherDisplay:10.37,2013-09-30 05:30:00,
2013-09-30 01:35:00,73.4,-33.2,29.98,NNE,22,6.9,6.9,1,0.00,CLR,,0.00,WeatherDisplay:10.37,2013-09-30 05:35:00,
2013-09-30 01:40:00,73.6,-33.0,29.98,NE,45,6.9,6.9,1,0.00,CLR,,0.00,WeatherDisplay:10.37,2013-09-30 05:40:00,
2013-09-30 01:45:00,73.8,-32.9,29.98,NNE,22,6.9,6.9,1,0.00,CLR,,0.00,WeatherDisplay:10.37,2013-09-30 05:45:00,
2013-09-30 01:50:00,73.8,-32.9,29.98,ENE,68,6.9,7.8,1,0.00,CLR,,0.00,WeatherDisplay:10.37,2013-09-30 05:50:00,
2013-09-30 01:55:00,73.6,-33.0,29.98,NNE,22,8.1,8.1,1,0.00,CLR,,0.00,WeatherDisplay:10.37,2013-09-30 05:55:00,
2013-09-30 02:00:00,73.6,-33.0,29.97,NE,45,7.1,7.1,1,0.00,CLR,,0.00,WeatherDisplay:10.37,2013-09-30 06:00:00,
2013-09-30 02:05:00,73.4,-33.2,29.97,SE,135,9.2,9.2,1,0.00,CLR,,0.00,WeatherDisplay:10.37,2013-09-30 06:05:00,
2013-09-30 02:10:00,73.0,-33.4,29.97,SE,135,6.9,6.9,1,0.00,CLR,,0.00,WeatherDisplay:10.37,2013-09-30 06:10:00,
2013-09-30 02:15:00,72.5,-33.7,29.97,SE,135,6.2,6.2,1,0.00,CLR,,0.00,WeatherDisplay:10.37,2013-09-30 06:15:00,
2013-09-30 02:20:00,72.3,-33.8,29.97,SE,135,3.1,3.1,1,0.00,CLR,,0.00,WeatherDisplay:10.37,2013-09-30 06:20:00,
2013-09-30 02:25:00,72.1,-33.9,29.97,ESE,112,2.3,2.3,1,0.00,CLR,,0.00,WeatherDisplay:10.37,2013-09-30 06:25:00,
2013-09-30 02:30:00,72.0,-34.0,29.97,SE,135,1.8,1.8,1,0.00,CLR,,0.00,WeatherDisplay:10.37,2013-09-30 06:30:00,
2013-09-30 02:36:00,72.0,-34.0,29.97,SE,135,2.3,2.3,1,0.00,CLR,,0.00,WeatherDisplay:10.37,2013-09-30 06:36:00,
2013-09-30 02:41:00,71.8,-34.1,29.96,East,90,2.4,2.4,1,0.00,CLR,,0.00,WeatherDisplay:10.37,2013-09-30 06:41:00,
2013-09-30 02:46:00,72.0,-34.0,29.96,ENE,68,3.6,3.6,1,0.00,CLR,,0.00,WeatherDisplay:10.37,2013-09-30 06:46:00,
2013-09-30 02:51:00,72.1,-33.9,29.96,NE,45,5.2,5.2,1,0.00,CLR,,0.00,WeatherDisplay:10.37,2013-09-30 06:51:00,
2013-09-30 02:56:00,72.7,-33.6,29.96,NNE,22,7.1,7.1,1,0.00,CLR,,0.00,WeatherDisplay:10.37,2013-09-30 06:56:00,
2013-09-30 03:01:00,73.0,-33.4,29.96,NNE,22,6.9,6.9,1,0.00,CLR,,0.00,WeatherDisplay:10.37,2013-09-30 07:01:00,
2013-09-30 03:06:00,73.4,-33.2,29.96,NNE,22,5.8,6.2,1,0.00,CLR,,0.00,WeatherDisplay:10.37,2013-09-30 07:06:00,
2013-09-30 03:11:00,73.4,-33.2,29.96,ENE,68,5.8,5.8,1,0.00,CLR,,0.00,WeatherDisplay:10.37,2013-09-30 07:11:00,
2013-09-30 03:16:00,73.4,-33.2,29.96,NE,45,5.8,5.8,1,0.00,CLR,,0.00,WeatherDisplay:10.37,2013-09-30 07:16:00,
2013-09-30 03:21:00,73.6,-33.0,29.96,NE,45,5.8,5.8,1,0.00,CLR,,0.00,WeatherDisplay:10.37,2013-09-30 07:21:00,
2013-09-30 03:26:00,73.4,-33.2,29.96,NNE,22,4.6,4.6,1,0.00,CLR,,0.00,WeatherDisplay:10.37,2013-09-30 07:26:00,
2013-09-30 03:31:00,73.4,-33.2,29.96,NNE,22,4.6,4.6,1,0.00,CLR,,0.00,WeatherDisplay:10.37,2013-09-30 07:31:00,
2013-09-30 03:36:00,73.4,-33.2,29.96,NNE,22,3.5,3.5,1,0.00,CLR,,0.00,WeatherDisplay:10.37,2013-09-30 07:36:00,
2013-09-30 03:41:00,73.6,-33.0,29.96,ENE,68,2.9,2.9,1,0.00,CLR,,0.00,WeatherDisplay:10.37,2013-09-30 07:41:00,
2013-09-30 03:46:00,73.4,-33.2,29.96,NE,45,2.9,2.9,1,0.00,CLR,,0.00,WeatherDisplay:10.37,2013-09-30 07:46:00,
2013-09-30 03:51:00,73.4,-33.2,29.96,NE,45,3.5,3.5,1,0.00,CLR,,0.00,WeatherDisplay:10.37,2013-09-30 07:51:00,
2013-09-30 03:56:00,73.4,-33.2,29.96,NE,45,3.5,3.5,1,0.00,CLR,,0.00,WeatherDisplay:10.37,2013-09-30 07:56:00,
2013-09-30 04:01:00,73.4,-33.2,29.96,NNE,22,3.5,3.5,1,0.00,CLR,,0.00,WeatherDisplay:10.37,2013-09-30 08:01:00,
2013-09-30 04:06:00,73.4,-33.2,29.96,NE,45,3.5,3.5,1,0.00,CLR,,0.00,WeatherDisplay:10.37,2013-09-30 08:06:00,
2013-09-30 04:11:00,73.4,-33.2,29.96,NNE,22,3.5,3.5,1,0.00,CLR,,0.00,WeatherDisplay:10.37,2013-09-30 08:11:00,
2013-09-30 04:16:00,73.4,-33.2,29.96,NE,45,3.5,3.5,1,0.00,CLR,,0.00,WeatherDisplay:10.37,2013-09-30 08:16:00,
2013-09-30 04:21:00,73.4,-33.2,29.96,NNE,22,3.5,3.5,1,0.00,CLR,,0.00,WeatherDisplay:10.37,2013-09-30 08:21:00,
2013-09-30 04:26:00,73.4,-33.2,29.96,NNE,22,3.5,3.5,1,0.00,CLR,,0.00,WeatherDisplay:10.37,2013-09-30 08:26:00,
2013-09-30 04:31:00,73.4,-33.2,29.96,NNE,22,4.6,4.6,1,0.00,CLR,,0.00,WeatherDisplay:10.37,2013-09-30 08:31:00,
2013-09-30 04:36:00,73.4,-33.2,29.96,NNE,22,3.8,3.8,1,0.00,CLR,,0.00,WeatherDisplay:10.37,2013-09-30 08:36:00,
2013-09-30 04:41:00,73.4,-33.2,29.96,NNE,22,3.6,3.6,1,0.00,CLR,,0.00,WeatherDisplay:10.37,2013-09-30 08:41:00,
2013-09-30 04:46:00,73.4,-33.2,29.96,NNE,22,4.7,4.7,1,0.00,CLR,,0.00,WeatherDisplay:10.37,2013-09-30 08:46:00,
2013-09-30 04:51:00,73.6,-33.0,29.96,North,0,6.9,6.9,1,0.00,CLR,,0.00,WeatherDisplay:10.37,2013-09-30 08:51:00,
2013-09-30 04:56:00,73.6,-33.0,29.96,NNE,22,5.8,5.9,1,0.00,CLR,,0.00,WeatherDisplay:10.37,2013-09-30 08:56:00,
2013-09-30 05:01:00,73.8,-32.9,29.96,North,0,6.9,6.9,1,0.00,CLR,,0.00,WeatherDisplay:10.37,2013-09-30 09:01:00,
2013-09-30 05:06:00,73.9,-32.8,29.96,NNE,22,4.7,4.7,1,0.00,CLR,,0.00,WeatherDisplay:10.37,2013-09-30 09:06:00,
2013-09-30 05:11:00,73.9,-32.8,29.96,NNE,22,5.8,5.8,1,0.00,CLR,,0.00,WeatherDisplay:10.37,2013-09-30 09:11:00,
2013-09-30 05:16:00,73.9,-32.8,29.96,NNE,22,4.6,4.7,1,0.00,CLR,,0.00,WeatherDisplay:10.37,2013-09-30 09:16:00,
2013-09-30 05:21:00,73.9,-32.8,29.96,NNE,22,4.6,4.6,1,0.00,CLR,,0.00,WeatherDisplay:10.37,2013-09-30 09:21:00,
2013-09-30 05:26:00,73.9,-32.8,29.96,North,0,4.9,4.9,1,0.00,CLR,,0.00,WeatherDisplay:10.37,2013-09-30 09:26:00,
2013-09-30 05:31:00,73.9,-32.8,29.96,NNE,22,5.8,5.8,1,0.00,CLR,,0.00,WeatherDisplay:10.37,2013-09-30 09:31:00,
2013-09-30 05:36:00,73.9,-32.8,29.96,NNE,22,4.6,4.6,1,0.00,CLR,,0.00,WeatherDisplay:10.37,2013-09-30 09:36:00,
2013-09-30 05:41:00,73.9,-32.8,29.96,ENE,68,6.0,6.0,1,0.00,CLR,,0.00,WeatherDisplay:10.37,2013-09-30 09:41:00,
2013-09-30 05:46:00,73.9,-32.8,29.97,NNE,22,4.7,4.7,1,0.00,CLR,,0.00,WeatherDisplay:10.37,2013-09-30 09:46:00,
2013-09-30 05:51:00,73.9,-32.8,29.96,NE,45,4.6,4.6,1,0.00,CLR,,0.00,WeatherDisplay:10.37,2013-09-30 09:51:00,
2013-09-30 05:56:00,74.1,-32.7,29.97,North,0,5.8,5.8,1,0.00,CLR,,0.00,WeatherDisplay:10.37,2013-09-30 09:56:00,
2013-09-30 06:01:00,74.1,-32.7,29.97,NNE,22,4.6,4.6,1,0.00,CLR,,0.00,WeatherDisplay:10.37,2013-09-30 10:01:00,
2013-09-30 06:06:00,74.1,-32.7,29.97,North,0,4.6,4.6,1,0.00,CLR,,0.00,WeatherDisplay:10.37,2013-09-30 10:06:00,
2013-09-30 06:11:00,74.1,-32.7,29.97,North,0,5.2,5.2,1,0.00,CLR,,0.00,WeatherDisplay:10.37,2013-09-30 10:11:00,
2013-09-30 06:16:00,74.1,-32.7,29.97,NNE,22,4.6,4.6,1,0.00,CLR,,0.00,WeatherDisplay:10.37,2013-09-30 10:16:00,
2013-09-30 06:21:00,74.1,-32.7,29.98,North,0,4.6,5.2,1,0.00,CLR,,0.00,WeatherDisplay:10.37,2013-09-30 10:21:00,
2013-09-30 06:26:00,74.1,-32.7,29.98,NNE,22,4.6,4.6,1,0.00,CLR,,0.00,WeatherDisplay:10.37,2013-09-30 10:26:00,
2013-09-30 06:31:00,74.1,-32.7,29.98,NNE,22,4.6,4.6,1,0.00,CLR,,0.00,WeatherDisplay:10.37,2013-09-30 10:31:00,
2013-09-30 06:36:00,74.1,-32.7,29.98,NNE,22,4.6,4.6,1,0.00,CLR,,0.00,WeatherDisplay:10.37,2013-09-30 10:36:00,
2013-09-30 06:41:00,73.9,-32.8,29.98,NE,45,4.6,4.6,1,0.00,CLR,,0.00,WeatherDisplay:10.37,2013-09-30 10:41:00,
2013-09-30 06:46:00,74.1,-32.7,29.98,NE,45,4.6,4.6,1,0.00,CLR,,0.00,WeatherDisplay:10.37,2013-09-30 10:46:00,
2013-09-30 06:51:00,74.1,-32.7,29.98,NE,45,4.6,4.6,1,0.00,CLR,,0.00,WeatherDisplay:10.37,2013-09-30 10:51:00,
2013-09-30 06:56:00,74.1,-32.7,29.98,NE,45,4.0,4.0,1,0.00,CLR,,0.00,WeatherDisplay:10.37,2013-09-30 10:56:00,
2013-09-30 07:01:00,74.1,-32.7,29.99,NE,45,4.7,4.7,1,0.00,CLR,,0.00,WeatherDisplay:10.37,2013-09-30 11:01:00,
2013-09-30 07:06:00,74.1,-32.7,29.99,NNE,22,5.8,5.8,1,0.00,CLR,,0.00,WeatherDisplay:10.37,2013-09-30 11:06:00,
2013-09-30 07:11:00,74.3,-32.6,29.99,NNE,22,4.9,4.9,1,0.00,CLR,,0.00,WeatherDisplay:10.37,2013-09-30 11:11:00,
2013-09-30 07:16:00,74.3,-32.6,29.99,ENE,68,5.9,5.9,1,0.00,CLR,,0.00,WeatherDisplay:10.37,2013-09-30 11:16:00,
2013-09-30 07:21:00,74.5,-32.5,29.99,NNE,22,5.8,5.8,1,0.00,CLR,,0.00,WeatherDisplay:10.37,2013-09-30 11:21:00,
2013-09-30 07:26:00,74.3,-32.6,29.99,NNE,22,4.6,4.6,1,0.00,CLR,,0.00,WeatherDisplay:10.37,2013-09-30 11:26:00,
2013-09-30 07:31:00,74.3,-32.6,29.99,NNE,22,5.9,5.9,1,0.00,CLR,,0.00,WeatherDisplay:10.37,2013-09-30 11:31:00,
2013-09-30 07:36:00,74.5,-32.5,29.99,North,0,6.9,6.9,1,0.00,CLR,,0.00,WeatherDisplay:10.37,2013-09-30 11:36:00,
2013-09-30 07:41:00,74.7,-32.4,30.00,North,0,6.9,6.9,1,0.00,CLR,,0.00,WeatherDisplay:10.37,2013-09-30 11:41:00,
2013-09-30 07:46:00,74.7,-32.4,30.00,North,0,6.9,6.9,1,0.00,CLR,,0.00,WeatherDisplay:10.37,2013-09-30 11:46:00,
2013-09-30 07:51:00,74.7,-32.4,30.01,NNE,22,6.2,6.2,1,0.00,CLR,,0.00,WeatherDisplay:10.37,2013-09-30 11:51:00,
2013-09-30 07:56:00,74.8,-32.3,30.01,North,0,9.2,9.2,1,0.00,CLR,,0.00,WeatherDisplay:10.37,2013-09-30 11:56:00,
2013-09-30 08:01:00,74.8,-32.3,30.01,North,0,8.1,8.1,1,0.00,CLR,,0.00,WeatherDisplay:10.37,2013-09-30 12:01:00,
2013-09-30 08:06:00,74.8,-32.3,30.01,North,0,7.1,7.1,1,0.00,CLR,,0.00,WeatherDisplay:10.37,2013-09-30 12:06:00,
2013-09-30 08:11:00,74.8,-32.3,30.01,NNE,22,8.1,8.1,1,0.00,CLR,,0.00,WeatherDisplay:10.37,2013-09-30 12:11:00,
2013-09-30 08:16:00,74.8,-32.3,30.01,NNE,22,8.3,8.3,1,0.00,CLR,,0.00,WeatherDisplay:10.37,2013-09-30 12:16:00,
2013-09-30 08:21:00,75.2,-32.1,30.01,NNE,22,8.1,8.1,1,0.00,CLR,,0.00,WeatherDisplay:10.37,2013-09-30 12:21:00,
2013-09-30 08:26:00,75.6,-31.9,30.01,NNE,22,8.1,8.1,1,0.00,CLR,,0.00,WeatherDisplay:10.37,2013-09-30 12:26:00,
2013-09-30 08:31:00,75.7,-31.7,30.01,North,0,11.5,11.5,1,0.00,CLR,,0.00,WeatherDisplay:10.37,2013-09-30 12:31:00,
2013-09-30 08:36:00,75.7,-31.7,30.02,North,0,10.4,10.4,1,0.00,CLR,,0.00,WeatherDisplay:10.37,2013-09-30 12:36:00,
2013-09-30 08:41:00,75.9,-31.6,30.01,North,0,10.0,10.0,1,0.00,CLR,,0.00,WeatherDisplay:10.37,2013-09-30 12:41:00,
2013-09-30 08:46:00,76.5,-31.3,30.02,NNE,22,10.4,10.4,1,0.00,CLR,,0.00,WeatherDisplay:10.37,2013-09-30 12:46:00,
2013-09-30 08:51:00,76.8,-31.1,30.02,NE,45,8.1,8.1,1,0.00,CLR,,0.00,WeatherDisplay:10.37,2013-09-30 12:51:00,
2013-09-30 08:56:00,77.2,-30.9,30.02,North,0,9.2,9.2,1,0.00,CLR,,0.00,WeatherDisplay:10.37,2013-09-30 12:56:00,
2013-09-30 09:01:00,77.5,-30.7,30.02,NNE,22,8.7,8.7,1,0.00,CLR,,0.00,WeatherDisplay:10.37,2013-09-30 13:01:00,
2013-09-30 09:06:00,77.5,-30.7,30.03,NNE,22,11.5,11.5,1,0.00,CLR,,0.00,WeatherDisplay:10.37,2013-09-30 13:06:00,
2013-09-30 09:11:00,77.7,-30.5,30.02,North,0,11.5,11.5,1,0.00,CLR,,0.00,WeatherDisplay:10.37,2013-09-30 13:11:00,
2013-09-30 09:16:00,77.7,-30.5,30.02,NNE,22,11.5,11.5,1,0.00,CLR,,0.00,WeatherDisplay:10.37,2013-09-30 13:16:00,
2013-09-30 09:21:00,77.7,-30.5,30.03,NNE,22,10.4,10.4,1,0.00,CLR,,0.00,WeatherDisplay:10.37,2013-09-30 13:21:00,
2013-09-30 09:26:00,77.7,-30.5,30.03,NNE,22,10.5,10.5,1,0.00,CLR,,0.00,WeatherDisplay:10.37,2013-09-30 13:26:00,
2013-09-30 09:31:00,77.7,-30.5,30.03,NNE,22,12.7,12.7,1,0.00,CLR,,0.00,WeatherDisplay:10.37,2013-09-30 13:31:00,
2013-09-30 09:36:00,78.1,-30.3,30.03,NNE,22,11.5,11.5,1,0.00,CLR,,0.00,WeatherDisplay:10.37,2013-09-30 13:36:00,
2013-09-30 09:41:00,78.3,-30.2,30.03,North,0,11.5,11.5,1,0.00,CLR,,0.00,WeatherDisplay:10.37,2013-09-30 13:41:00,
2013-09-30 09:46:00,78.4,-30.1,30.03,North,0,14.0,14.0,1,0.00,CLR,,0.00,WeatherDisplay:10.37,2013-09-30 13:46:00,
2013-09-30 09:51:00,78.8,-29.9,30.03,North,0,13.8,13.8,1,0.00,CLR,,0.00,WeatherDisplay:10.37,2013-09-30 13:51:00,
2013-09-30 09:56:00,79.0,-29.8,30.03,North,0,11.5,11.5,1,0.00,CLR,,0.00,WeatherDisplay:10.37,2013-09-30 13:56:00,
2013-09-30 10:01:00,79.2,-29.7,30.03,NNE,22,10.4,14.5,1,0.00,CLR,,0.00,WeatherDisplay:10.37,2013-09-30 14:01:00,
2013-09-30 10:06:00,79.3,-29.6,30.03,North,0,17.3,17.3,1,0.00,CLR,,0.00,WeatherDisplay:10.37,2013-09-30 14:06:00,
2013-09-30 10:11:00,79.5,-29.5,30.04,North,0,14.3,14.3,1,0.00,CLR,,0.00,WeatherDisplay:10.37,2013-09-30 14:11:00,
2013-09-30 10:16:00,79.3,-29.6,30.04,North,0,12.7,12.7,1,0.00,CLR,,0.00,WeatherDisplay:10.37,2013-09-30 14:16:00,
2013-09-30 10:21:00,79.2,-29.7,30.03,North,0,17.3,17.3,1,0.00,CLR,,0.00,WeatherDisplay:10.37,2013-09-30 14:21:00,
2013-09-30 10:26:00,78.8,-29.9,30.04,North,0,13.8,13.8,1,0.00,CLR,,0.00,WeatherDisplay:10.37,2013-09-30 14:26:00,
2013-09-30 10:31:00,78.4,-30.1,30.04,North,0,15.0,15.0,1,0.00,CLR,,0.00,WeatherDisplay:10.37,2013-09-30 14:31:00,
2013-09-30 10:36:00,78.3,-30.2,30.04,NNE,22,10.4,10.4,1,0.00,CLR,,0.00,WeatherDisplay:10.37,2013-09-30 14:36:00,
2013-09-30 10:41:00,78.1,-30.3,30.04,North,0,9.2,9.2,1,0.00,CLR,,0.00,WeatherDisplay:10.37,2013-09-30 14:41:00,
2013-09-30 10:46:00,77.9,-30.4,30.04,NNE,22,15.0,15.0,1,0.00,CLR,,0.00,WeatherDisplay:10.37,2013-09-30 14:46:00,
2013-09-30 10:51:00,77.7,-30.5,30.04,North,0,10.4,10.4,1,0.00,CLR,,0.00,WeatherDisplay:10.37,2013-09-30 14:51:00,
2013-09-30 10:56:00,77.7,-30.5,30.04,NNE,22,15.0,15.0,1,0.00,CLR,,0.00,WeatherDisplay:10.37,2013-09-30 14:56:00,
2013-09-30 11:01:00,77.7,-30.5,30.04,North,0,15.0,15.0,1,0.00,CLR,,0.00,WeatherDisplay:10.37,2013-09-30 15:01:00,
2013-09-30 11:06:00,78.1,-30.3,30.04,NNE,22,15.0,15.0,1,0.00,CLR,,0.00,WeatherDisplay:10.37,2013-09-30 15:06:00,
2013-09-30 11:11:00,78.3,-30.2,30.03,North,0,16.1,16.1,1,0.00,CLR,,0.00,WeatherDisplay:10.37,2013-09-30 15:11:00,
2013-09-30 11:16:00,78.4,-30.1,30.03,NNE,22,15.0,15.0,1,0.00,CLR,,0.00,WeatherDisplay:10.37,2013-09-30 15:16:00,
2013-09-30 11:21:00,78.4,-30.1,30.03,North,0,14.7,14.7,1,0.00,CLR,,0.00,WeatherDisplay:10.37,2013-09-30 15:21:00,
2013-09-30 11:26:00,78.4,-30.1,30.04,North,0,16.1,16.1,1,0.00,CLR,,0.00,WeatherDisplay:10.37,2013-09-30 15:26:00,
2013-09-30 11:31:00,78.4,-30.1,30.04,North,0,19.6,19.6,1,0.00,CLR,,0.00,WeatherDisplay:10.37,2013-09-30 15:31:00,
2013-09-30 11:36:00,78.6,-30.0,30.04,North,0,17.7,17.7,1,0.00,CLR,,0.00,WeatherDisplay:10.37,2013-09-30 15:36:00,
2013-09-30 11:41:00,78.8,-29.9,30.04,North,0,16.3,16.3,1,0.00,CLR,,0.00,WeatherDisplay:10.37,2013-09-30 15:41:00,
2013-09-30 11:46:00,78.8,-29.9,30.04,North,0,17.3,17.3,1,0.00,CLR,,0.00,WeatherDisplay:10.37,2013-09-30 15:46:00,
2013-09-30 11:51:00,78.8,-29.9,30.04,North,0,17.3,17.3,1,0.00,CLR,,0.00,WeatherDisplay:10.37,2013-09-30 15:51:00,
2013-09-30 11:56:00,78.8,-29.9,30.04,North,0,13.8,13.8,1,0.00,CLR,,0.00,WeatherDisplay:10.37,2013-09-30 15:56:00,
2013-09-30 12:01:00,78.8,-29.9,30.03,North,0,19.6,19.6,1,0.00,CLR,,0.00,WeatherDisplay:10.37,2013-09-30 16:01:00,
2013-09-30 12:06:00,78.6,-30.0,30.03,NNE,22,13.9,13.9,1,0.00,CLR,,0.00,WeatherDisplay:10.37,2013-09-30 16:06:00,
2013-09-30 12:11:00,78.4,-30.1,30.03,North,0,18.4,18.4,1,0.00,CLR,,0.00,WeatherDisplay:10.37,2013-09-30 16:11:00,
2013-09-30 12:16:00,78.6,-30.0,30.03,North,0,17.3,17.3,1,0.00,CLR,,0.00,WeatherDisplay:10.37,2013-09-30 16:16:00,
2013-09-30 12:21:00,78.4,-30.1,30.03,North,0,13.9,13.9,1,0.00,CLR,,0.00,WeatherDisplay:10.37,2013-09-30 16:21:00,
2013-09-30 12:26:00,78.4,-30.1,30.03,North,0,18.4,18.4,1,0.00,CLR,,0.00,WeatherDisplay:10.37,2013-09-30 16:26:00,
2013-09-30 12:31:00,78.4,-30.1,30.03,NNE,22,23.0,23.0,1,0.00,CLR,,0.00,WeatherDisplay:10.37,2013-09-30 16:31:00,
2013-09-30 12:36:00,78.4,-30.1,30.03,North,0,17.3,17.3,1,0.00,CLR,,0.00,WeatherDisplay:10.37,2013-09-30 16:36:00,
2013-09-30 12:41:00,78.3,-30.2,30.03,NNE,22,17.3,17.3,1,0.00,CLR,,0.00,WeatherDisplay:10.37,2013-09-30 16:41:00,
2013-09-30 12:46:00,78.3,-30.2,30.03,North,0,19.6,19.6,1,0.00,CLR,,0.00,WeatherDisplay:10.37,2013-09-30 16:46:00,
2013-09-30 12:51:00,78.3,-30.2,30.03,North,0,14.0,14.0,1,0.00,CLR,,0.00,WeatherDisplay:10.37,2013-09-30 16:51:00,
2013-09-30 12:56:00,78.1,-30.3,30.03,North,0,18.4,18.4,1,0.00,CLR,,0.00,WeatherDisplay:10.37,2013-09-30 16:56:00,
2013-09-30 13:01:00,78.1,-30.3,30.03,NNE,22,17.3,17.3,1,0.00,CLR,,0.00,WeatherDisplay:10.37,2013-09-30 17:01:00,
2013-09-30 13:06:00,77.9,-30.4,30.03,North,0,16.1,16.1,1,0.00,CLR,,0.00,WeatherDisplay:10.37,2013-09-30 17:06:00,
2013-09-30 13:11:00,77.9,-30.4,30.03,NNE,22,17.5,17.5,1,0.00,CLR,,0.00,WeatherDisplay:10.37,2013-09-30 17:11:00,
2013-09-30 13:16:00,78.1,-30.3,30.03,NNE,22,16.1,16.1,1,0.00,CLR,,0.00,WeatherDisplay:10.37,2013-09-30 17:16:00,
2013-09-30 13:21:00,78.1,-30.3,30.03,North,0,16.3,16.3,1,0.00,CLR,,0.00,WeatherDisplay:10.37,2013-09-30 17:21:00,
2013-09-30 13:26:00,78.1,-30.3,30.03,North,0,17.3,17.3,1,0.00,CLR,,0.00,WeatherDisplay:10.37,2013-09-30 17:26:00,
2013-09-30 13:31:00,78.1,-30.3,30.02,NNE,22,17.9,17.9,1,0.00,CLR,,0.00,WeatherDisplay:10.37,2013-09-30 17:31:00,
2013-09-30 13:36:00,78.1,-30.3,30.02,NNE,22,13.8,13.8,1,0.00,CLR,,0.00,WeatherDisplay:10.37,2013-09-30 17:36:00,
2013-09-30 13:41:00,77.9,-30.4,30.02,North,0,17.3,17.5,1,0.00,CLR,,0.00,WeatherDisplay:10.37,2013-09-30 17:41:00,
2013-09-30 13:46:00,77.9,-30.4,30.02,East,90,15.0,15.0,1,0.00,CLR,,0.00,WeatherDisplay:10.37,2013-09-30 17:46:00,
2013-09-30 13:51:00,77.9,-30.4,30.02,North,0,14.3,14.3,1,0.00,CLR,,0.00,WeatherDisplay:10.37,2013-09-30 17:51:00,
2013-09-30 13:56:00,78.1,-30.3,30.02,North,0,12.1,12.1,1,0.00,CLR,,0.00,WeatherDisplay:10.37,2013-09-30 17:56:00,
2013-09-30 14:01:00,78.3,-30.2,30.02,NNE,22,15.0,15.4,1,0.00,CLR,,0.00,WeatherDisplay:10.37,2013-09-30 18:01:00,
2013-09-30 14:06:00,78.3,-30.2,30.02,North,0,16.1,16.1,1,0.00,CLR,,0.00,WeatherDisplay:10.37,2013-09-30 18:06:00,
2013-09-30 14:11:00,78.3,-30.2,30.02,North,0,18.4,18.4,1,0.00,CLR,,0.00,WeatherDisplay:10.37,2013-09-30 18:11:00,
2013-09-30 14:16:00,78.3,-30.2,30.01,ENE,68,17.3,17.3,1,0.00,CLR,,0.00,WeatherDisplay:10.37,2013-09-30 18:16:00,
2013-09-30 14:21:00,78.1,-30.3,30.01,NNE,22,13.8,13.8,1,0.00,CLR,,0.00,WeatherDisplay:10.37,2013-09-30 18:21:00,
2013-09-30 14:26:00,78.1,-30.3,30.02,SE,135,10.4,10.5,1,0.00,CLR,,0.00,WeatherDisplay:10.37,2013-09-30 18:26:00,
2013-09-30 14:31:00,78.1,-30.3,30.01,North,0,15.0,15.0,1,0.00,CLR,,0.00,WeatherDisplay:10.37,2013-09-30 18:31:00,
2013-09-30 14:36:00,78.1,-30.3,30.01,North,0,16.1,16.1,1,0.00,CLR,,0.00,WeatherDisplay:10.37,2013-09-30 18:36:00,
2013-09-30 14:41:00,78.1,-30.3,30.01,North,0,13.8,13.8,1,0.00,CLR,,0.00,WeatherDisplay:10.37,2013-09-30 18:41:00,
2013-09-30 14:46:00,78.1,-30.3,30.01,North,0,13.8,14.0,1,0.00,CLR,,0.00,WeatherDisplay:10.37,2013-09-30 18:46:00,
2013-09-30 14:51:00,77.9,-30.4,30.01,North,0,15.0,15.0,1,0.00,CLR,,0.00,WeatherDisplay:10.37,2013-09-30 18:51:00,
2013-09-30 14:56:00,77.9,-30.4,30.01,North,0,13.8,13.8,1,0.00,CLR,,0.00,WeatherDisplay:10.37,2013-09-30 18:56:00,
2013-09-30 15:01:00,77.9,-30.4,30.01,NE,45,13.8,13.8,1,0.00,CLR,,0.00,WeatherDisplay:10.37,2013-09-30 19:01:00,
2013-09-30 15:06:00,77.7,-30.5,30.01,North,0,17.3,17.3,1,0.00,CLR,,0.00,WeatherDisplay:10.37,2013-09-30 19:06:00,
2013-09-30 15:11:00,77.7,-30.5,30.00,NE,45,15.0,15.0,1,0.00,CLR,,0.00,WeatherDisplay:10.37,2013-09-30 19:11:00,
2013-09-30 15:16:00,77.5,-30.7,30.00,North,0,17.3,17.3,1,0.00,CLR,,0.00,WeatherDisplay:10.37,2013-09-30 19:16:00,
2013-09-30 15:21:00,77.4,-30.8,30.00,North,0,14.7,14.7,1,0.00,CLR,,0.00,WeatherDisplay:10.37,2013-09-30 19:21:00,
2013-09-30 15:26:00,77.4,-30.8,30.00,North,0,16.1,16.1,1,0.00,CLR,,0.00,WeatherDisplay:10.37,2013-09-30 19:26:00,
2013-09-30 15:31:00,77.4,-30.8,30.00,North,0,13.8,13.8,1,0.00,CLR,,0.00,WeatherDisplay:10.37,2013-09-30 19:31:00,
2013-09-30 15:36:00,77.4,-30.8,30.00,NE,45,15.0,15.0,1,0.00,CLR,,0.00,WeatherDisplay:10.37,2013-09-30 19:36:00,
2013-09-30 15:41:00,77.4,-30.8,29.99,NNE,22,13.8,13.8,1,0.00,CLR,,0.00,WeatherDisplay:10.37,2013-09-30 19:41:00,
2013-09-30 15:46:00,77.4,-30.8,30.00,North,0,15.0,15.0,1,0.00,CLR,,0.00,WeatherDisplay:10.37,2013-09-30 19:46:00,
2013-09-30 15:51:00,77.2,-30.9,29.99,North,0,16.1,16.1,1,0.00,CLR,,0.00,WeatherDisplay:10.37,2013-09-30 19:51:00,
2013-09-30 15:56:00,77.2,-30.9,29.99,NE,45,13.9,13.9,1,0.00,CLR,,0.00,WeatherDisplay:10.37,2013-09-30 19:56:00,
2013-09-30 16:01:00,77.2,-30.9,29.99,NNE,22,13.8,13.8,1,0.00,CLR,,0.00,WeatherDisplay:10.37,2013-09-30 20:01:00,
2013-09-30 16:06:00,77.2,-30.9,30.00,North,0,14.3,14.3,1,0.00,CLR,,0.00,WeatherDisplay:10.37,2013-09-30 20:06:00,
2013-09-30 16:11:00,77.2,-30.9,29.99,North,0,13.8,13.8,1,0.00,CLR,,0.00,WeatherDisplay:10.37,2013-09-30 20:11:00,
2013-09-30 16:16:00,77.2,-30.9,29.99,North,0,11.5,11.5,1,0.00,CLR,,0.00,WeatherDisplay:10.37,2013-09-30 20:16:00,
2013-09-30 16:21:00,77.4,-30.8,30.00,NNE,22,13.8,13.8,1,0.00,CLR,,0.00,WeatherDisplay:10.37,2013-09-30 20:21:00,
2013-09-30 16:26:00,77.4,-30.8,30.00,NNE,22,13.5,13.5,1,0.00,CLR,,0.00,WeatherDisplay:10.37,2013-09-30 20:26:00,
2013-09-30 16:31:00,77.2,-30.9,30.00,North,0,17.3,17.3,1,0.00,CLR,,0.00,WeatherDisplay:10.37,2013-09-30 20:31:00,
2013-09-30 16:36:00,77.4,-30.8,30.00,North,0,15.0,15.4,1,0.00,CLR,,0.00,WeatherDisplay:10.37,2013-09-30 20:36:00,
2013-09-30 16:41:00,77.2,-30.9,30.00,NNE,22,13.8,13.8,1,0.00,CLR,,0.00,WeatherDisplay:10.37,2013-09-30 20:41:00,
2013-09-30 16:46:00,77.2,-30.9,30.00,North,0,11.5,11.5,1,0.00,CLR,,0.00,WeatherDisplay:10.37,2013-09-30 20:46:00,
2013-09-30 16:51:00,77.2,-30.9,30.00,North,0,12.8,12.8,1,0.00,CLR,,0.00,WeatherDisplay:10.37,2013-09-30 20:51:00,
2013-09-30 16:56:00,77.2,-30.9,30.00,NNE,22,9.2,9.2,1,0.00,CLR,,0.00,WeatherDisplay:10.37,2013-09-30 20:56:00,
2013-09-30 17:01:00,77.0,-31.0,30.00,North,0,11.5,11.5,1,0.00,CLR,,0.00,WeatherDisplay:10.37,2013-09-30 21:01:00,
2013-09-30 17:06:00,77.0,-31.0,30.00,North,0,13.8,13.8,1,0.00,CLR,,0.00,WeatherDisplay:10.37,2013-09-30 21:06:00,
2013-09-30 17:11:00,77.0,-31.0,30.00,NNE,22,15.0,15.0,1,0.00,CLR,,0.00,WeatherDisplay:10.37,2013-09-30 21:11:00,
2013-09-30 17:16:00,77.0,-31.0,30.00,NNE,22,11.5,11.5,1,0.00,CLR,,0.00,WeatherDisplay:10.37,2013-09-30 21:16:00,
2013-09-30 17:21:00,76.8,-31.1,30.00,North,0,10.4,10.4,1,0.00,CLR,,0.00,WeatherDisplay:10.37,2013-09-30 21:21:00,
2013-09-30 17:26:00,76.8,-31.1,30.00,North,0,12.1,12.1,1,0.00,CLR,,0.00,WeatherDisplay:10.37,2013-09-30 21:26:00,
2013-09-30 17:31:00,76.8,-31.1,30.01,NE,45,9.2,9.2,1,0.00,CLR,,0.00,WeatherDisplay:10.37,2013-09-30 21:31:00,
2013-09-30 17:36:00,76.6,-31.2,30.00,NNE,22,8.1,8.1,1,0.00,CLR,,0.00,WeatherDisplay:10.37,2013-09-30 21:36:00,
2013-09-30 17:41:00,76.6,-31.2,30.01,NNE,22,12.3,12.3,1,0.00,CLR,,0.00,WeatherDisplay:10.37,2013-09-30 21:41:00,
2013-09-30 17:46:00,76.8,-31.1,30.01,North,0,9.2,9.2,1,0.00,CLR,,0.00,WeatherDisplay:10.37,2013-09-30 21:46:00,
2013-09-30 17:51:00,76.8,-31.1,30.01,NNE,22,10.5,10.5,1,0.00,CLR,,0.00,WeatherDisplay:10.37,2013-09-30 21:51:00,
2013-09-30 17:56:00,76.8,-31.1,30.01,NNE,22,9.7,9.7,1,0.00,CLR,,0.00,WeatherDisplay:10.37,2013-09-30 21:56:00,
2013-09-30 18:01:00,76.8,-31.1,30.00,NE,45,9.2,9.2,1,0.00,CLR,,0.00,WeatherDisplay:10.37,2013-09-30 22:01:00,
2013-09-30 18:06:00,76.6,-31.2,30.01,NNE,22,6.9,6.9,1,0.00,CLR,,0.00,WeatherDisplay:10.37,2013-09-30 22:06:00,
2013-09-30 18:11:00,76.6,-31.2,30.01,ENE,68,9.2,9.2,1,0.00,CLR,,0.00,WeatherDisplay:10.37,2013-09-30 22:11:00,
2013-09-30 18:16:00,76.6,-31.2,30.01,NNE,22,8.1,8.1,1,0.00,CLR,,0.00,WeatherDisplay:10.37,2013-09-30 22:16:00,
2013-09-30 18:21:00,76.6,-31.2,30.01,NE,45,8.1,8.1,1,0.00,CLR,,0.00,WeatherDisplay:10.37,2013-09-30 22:21:00,
2013-09-30 18:26:00,76.5,-31.3,30.01,NNE,22,6.9,6.9,1,0.00,CLR,,0.00,WeatherDisplay:10.37,2013-09-30 22:26:00,
2013-09-30 18:31:00,76.5,-31.3,30.01,NNE,22,6.9,6.9,1,0.00,CLR,,0.00,WeatherDisplay:10.37,2013-09-30 22:31:00,
2013-09-30 18:36:00,76.5,-31.3,30.01,NNE,22,6.9,6.9,1,0.00,CLR,,0.00,WeatherDisplay:10.37,2013-09-30 22:36:00,
2013-09-30 18:41:00,76.5,-31.3,30.01,NE,45,8.1,8.5,1,0.00,CLR,,0.00,WeatherDisplay:10.37,2013-09-30 22:41:00,
2013-09-30 18:46:00,76.3,-31.4,30.01,SE,135,7.4,7.4,1,0.00,CLR,,0.00,WeatherDisplay:10.37,2013-09-30 22:46:00,
2013-09-30 18:51:00,76.3,-31.4,30.01,NE,45,6.9,6.9,1,0.00,CLR,,0.00,WeatherDisplay:10.37,2013-09-30 22:51:00,
2013-09-30 18:56:00,76.3,-31.4,30.01,NNE,22,5.8,5.8,1,0.00,CLR,,0.00,WeatherDisplay:10.37,2013-09-30 22:56:00,
2013-09-30 19:01:00,76.3,-31.4,30.01,ENE,68,6.4,6.4,1,0.00,CLR,,0.00,WeatherDisplay:10.37,2013-09-30 23:01:00,
2013-09-30 19:06:00,76.3,-31.4,30.01,East,90,6.9,6.9,1,0.00,CLR,,0.00,WeatherDisplay:10.37,2013-09-30 23:06:00,
2013-09-30 19:11:00,76.1,-31.5,30.01,East,90,6.0,6.0,1,0.00,CLR,,0.00,WeatherDisplay:10.37,2013-09-30 23:11:00,
2013-09-30 19:16:00,76.1,-31.5,30.01,NNE,22,8.1,8.1,1,0.00,CLR,,0.00,WeatherDisplay:10.37,2013-09-30 23:16:00,
2013-09-30 19:21:00,76.1,-31.5,30.01,NNE,22,5.8,6.2,1,0.00,CLR,,0.00,WeatherDisplay:10.37,2013-09-30 23:21:00,
2013-09-30 19:26:00,76.1,-31.5,30.02,NE,45,8.1,8.1,1,0.00,CLR,,0.00,WeatherDisplay:10.37,2013-09-30 23:26:00,
2013-09-30 19:31:00,76.1,-31.5,30.02,NNE,22,6.4,6.4,1,0.00,CLR,,0.00,WeatherDisplay:10.37,2013-09-30 23:31:00,
2013-09-30 19:36:00,75.9,-31.6,30.01,ENE,68,6.9,6.9,1,0.00,CLR,,0.00,WeatherDisplay:10.37,2013-09-30 23:36:00,
2013-09-30 19:41:00,75.9,-31.6,30.01,NE,45,5.8,6.4,1,0.00,CLR,,0.00,WeatherDisplay:10.37,2013-09-30 23:41:00,
2013-09-30 19:46:00,75.9,-31.6,30.02,NE,45,5.8,5.8,1,0.00,CLR,,0.00,WeatherDisplay:10.37,2013-09-30 23:46:00,
2013-09-30 19:51:00,75.9,-31.6,30.01,NE,45,5.8,5.8,1,0.00,CLR,,0.00,WeatherDisplay:10.37,2013-09-30 23:51:00,
2013-09-30 19:56:00,75.9,-31.6,30.02,ENE,68,4.6,4.6,1,0.00,CLR,,0.00,WeatherDisplay:10.37,2013-09-30 23:56:00,
2013-09-30 20:01:00,75.9,-31.6,30.02,East,90,4.5,4.5,1,0.00,CLR,,0.00,WeatherDisplay:10.37,2013-10-01 00:01:00,
2013-09-30 20:06:00,75.7,-31.7,30.02,NE,45,4.6,4.6,1,0.00,CLR,,0.00,WeatherDisplay:10.37,2013-10-01 00:06:00,
2013-09-30 20:11:00,75.9,-31.6,30.02,ENE,68,5.8,5.8,1,0.00,CLR,,0.00,WeatherDisplay:10.37,2013-10-01 00:11:00,
2013-09-30 20:16:00,75.9,-31.6,30.02,ENE,68,5.8,5.8,1,0.00,CLR,,0.00,WeatherDisplay:10.37,2013-10-01 00:16:00,
2013-09-30 20:21:00,75.9,-31.6,30.02,ENE,68,5.8,5.8,1,0.00,CLR,,0.00,WeatherDisplay:10.37,2013-10-01 00:21:00,
2013-09-30 20:26:00,75.9,-31.6,30.02,North,0,8.1,8.1,1,0.00,CLR,,0.00,WeatherDisplay:10.37,2013-10-01 00:26:00,
2013-09-30 20:31:00,75.9,-31.6,30.03,NE,45,6.2,6.2,1,0.00,CLR,,0.00,WeatherDisplay:10.37,2013-10-01 00:31:00,
2013-09-30 20:36:00,75.9,-31.6,30.03,NNE,22,5.8,5.8,1,0.00,CLR,,0.00,WeatherDisplay:10.37,2013-10-01 00:36:00,
2013-09-30 20:41:00,75.9,-31.6,30.03,NE,45,6.9,6.9,1,0.00,CLR,,0.00,WeatherDisplay:10.37,2013-10-01 00:41:00,
2013-09-30 20:46:00,75.7,-31.7,30.03,NNE,22,5.8,6.4,1,0.00,CLR,,0.00,WeatherDisplay:10.37,2013-10-01 00:46:00,
2013-09-30 20:51:00,75.7,-31.7,30.03,NNE,22,6.2,6.2,1,0.00,CLR,,0.00,WeatherDisplay:10.37,2013-10-01 00:51:00,
2013-09-30 20:56:00,75.7,-31.7,30.03,NNE,22,8.1,8.1,1,0.00,CLR,,0.00,WeatherDisplay:10.37,2013-10-01 00:56:00,
2013-09-30 21:01:00,75.6,-31.9,30.03,East,90,5.8,5.8,1,0.00,CLR,,0.00,WeatherDisplay:10.37,2013-10-01 01:01:00,
2013-09-30 21:06:00,75.6,-31.9,30.03,NE,45,6.9,6.9,1,0.00,CLR,,0.00,WeatherDisplay:10.37,2013-10-01 01:06:00,
2013-09-30 21:11:00,75.6,-31.9,30.03,NE,45,6.9,8.5,1,0.00,CLR,,0.00,WeatherDisplay:10.37,2013-10-01 01:11:00,
2013-09-30 21:16:00,75.6,-31.9,30.04,NE,45,8.1,8.1,1,0.00,CLR,,0.00,WeatherDisplay:10.37,2013-10-01 01:16:00,
2013-09-30 21:21:00,75.6,-31.9,30.04,NNE,22,8.5,8.5,1,0.00,CLR,,0.00,WeatherDisplay:10.37,2013-10-01 01:21:00,
2013-09-30 21:26:00,75.6,-31.9,30.04,ENE,68,6.9,6.9,1,0.00,CLR,,0.00,WeatherDisplay:10.37,2013-10-01 01:26:00,
2013-09-30 21:31:00,75.6,-31.9,30.04,NE,45,8.1,8.1,1,0.00,CLR,,0.00,WeatherDisplay:10.37,2013-10-01 01:31:00,
2013-09-30 21:36:00,75.6,-31.9,30.04,NNE,22,9.0,9.0,1,0.00,CLR,,0.00,WeatherDisplay:10.37,2013-10-01 01:36:00,
2013-09-30 21:41:00,75.6,-31.9,30.04,North,0,9.0,9.0,1,0.00,CLR,,0.00,WeatherDisplay:10.37,2013-10-01 01:41:00,
2013-09-30 21:46:00,75.6,-31.9,30.04,ESE,112,10.4,10.4,1,0.00,CLR,,0.00,WeatherDisplay:10.37,2013-10-01 01:46:00,
2013-09-30 21:51:00,75.6,-31.9,30.05,ENE,68,9.2,9.2,1,0.00,CLR,,0.00,WeatherDisplay:10.37,2013-10-01 01:51:00,
2013-09-30 21:56:00,75.7,-31.7,30.05,East,90,10.4,10.4,1,0.00,CLR,,0.00,WeatherDisplay:10.37,2013-10-01 01:56:00,
2013-09-30 22:01:00,75.7,-31.7,30.05,NNE,22,10.2,10.2,1,0.00,CLR,,0.00,WeatherDisplay:10.37,2013-10-01 02:01:00,
2013-09-30 22:06:00,75.7,-31.7,30.05,North,0,10.4,10.4,1,0.00,CLR,,0.00,WeatherDisplay:10.37,2013-10-01 02:06:00,
2013-09-30 22:11:00,75.7,-31.7,30.05,NNE,22,9.2,9.2,1,0.00,CLR,,0.00,WeatherDisplay:10.37,2013-10-01 02:11:00,
2013-09-30 22:16:00,75.7,-31.7,30.05,North,0,10.4,10.4,1,0.00,CLR,,0.00,WeatherDisplay:10.37,2013-10-01 02:16:00,
2013-09-30 22:21:00,75.7,-31.7,30.05,North,0,9.2,9.2,1,0.00,CLR,,0.00,WeatherDisplay:10.37,2013-10-01 02:21:00,
2013-09-30 22:26:00,75.7,-31.7,30.05,North,0,11.5,11.5,1,0.00,CLR,,0.00,WeatherDisplay:10.37,2013-10-01 02:26:00,
2013-09-30 22:31:00,75.7,-31.7,30.05,NNE,22,13.8,13.8,1,0.00,CLR,,0.00,WeatherDisplay:10.37,2013-10-01 02:31:00,
2013-09-30 22:36:00,75.7,-31.7,30.05,NNE,22,10.4,10.4,1,0.00,CLR,,0.00,WeatherDisplay:10.37,2013-10-01 02:36:00,
2013-09-30 22:41:00,75.9,-31.6,30.05,NNE,22,9.2,9.2,1,0.00,CLR,,0.00,WeatherDisplay:10.37,2013-10-01 02:41:00,
2013-09-30 22:46:00,75.7,-31.7,30.06,NE,45,10.4,10.4,1,0.00,CLR,,0.00,WeatherDisplay:10.37,2013-10-01 02:46:00,
2013-09-30 22:51:00,75.7,-31.7,30.06,NNE,22,8.3,8.3,1,0.00,CLR,,0.00,WeatherDisplay:10.37,2013-10-01 02:51:00,
2013-09-30 22:56:00,75.7,-31.7,30.07,NNE,22,8.1,8.5,1,0.00,CLR,,0.00,WeatherDisplay:10.37,2013-10-01 02:56:00,
2013-09-30 23:01:00,75.7,-31.7,30.06,NNE,22,9.2,9.2,1,0.00,CLR,,0.00,WeatherDisplay:10.37,2013-10-01 03:01:00,
2013-09-30 23:06:00,75.7,-31.7,30.06,NNE,22,8.3,8.3,1,0.00,CLR,,0.00,WeatherDisplay:10.37,2013-10-01 03:06:00,
2013-09-30 23:11:00,75.7,-31.7,30.07,NNE,22,8.1,8.1,1,0.00,CLR,,0.00,WeatherDisplay:10.37,2013-10-01 03:11:00,
2013-09-30 23:16:00,75.7,-31.7,30.06,NNE,22,9.2,9.2,1,0.00,CLR,,0.00,WeatherDisplay:10.37,2013-10-01 03:16:00,
2013-09-30 23:21:00,75.7,-31.7,30.06,NNE,22,9.2,9.2,1,0.00,CLR,,0.00,WeatherDisplay:10.37,2013-10-01 03:21:00,
2013-09-30 23:26:00,75.7,-31.7,30.06,NNE,22,11.6,11.6,1,0.00,CLR,,0.00,WeatherDisplay:10.37,2013-10-01 03:26:00,
2013-09-30 23:31:00,75.6,-31.9,30.06,NE,45,9.2,9.2,1,0.00,CLR,,0.00,WeatherDisplay:10.37,2013-10-01 03:31:00,
2013-09-30 23:36:00,75.7,-31.7,30.07,NNE,22,10.5,10.5,1,0.00,CLR,,0.00,WeatherDisplay:10.37,2013-10-01 03:36:00,
2013-09-30 23:41:00,75.6,-31.9,30.06,NE,45,10.4,10.4,1,0.00,CLR,,0.00,WeatherDisplay:10.37,2013-10-01 03:41:00,
2013-09-30 23:46:00,75.6,-31.9,30.07,ENE,68,8.1,8.1,1,0.00,CLR,,0.00,WeatherDisplay:10.37,2013-10-01 03:46:00,
2013-09-30 23:51:00,75.6,-31.9,30.06,North,0,9.4,9.4,1,0.00,CLR,,0.00,WeatherDisplay:10.37,2013-10-01 03:51:00,
2013-09-30 23:56:00,75.6,-31.9,30.07,NNE,22,8.5,8.5,1,0.00,CLR,,0.00,WeatherDisplay:10.37,2013-10-01 03:56:00,